DLH6YY EDDL-EDDF

Flight info

Callsign DLH6YY
Flight time 0h 32m
Altitude 23000
Route COL4H COL T911 ROLIS ROLIS5A
Aircraft A20N/M-SDE2E3FGHIRWXY/LB1

Departure

Time 2026-05-04 20:25
Airport Düsseldorf Airport (EDDL)

Arrival

Time 2026-05-04 20:57
Airport Frankfurt Main Airport (EDDF)
Time Latitude Longitude Altitude Speed Heading
2026-05-04 19:35 51.28445 6.77318 129 ft 0 kts 142°
2026-05-04 20:07 51.28450 6.77312 125 ft 1 kts 142°
2026-05-04 20:08 51.28456 6.77304 123 ft 1 kts 142°
2026-05-04 20:08 51.28468 6.77291 123 ft 2 kts 142°
2026-05-04 20:08 51.28479 6.77276 123 ft 2 kts 133°
2026-05-04 20:08 51.28488 6.77259 124 ft 2 kts 113°
2026-05-04 20:09 51.28492 6.77238 123 ft 2 kts 80°
2026-05-04 20:09 51.28491 6.77231 123 ft 0 kts 63°
2026-05-04 20:12 51.28507 6.77275 125 ft 9 kts 57°
2026-05-04 20:12 51.28547 6.77370 126 ft 11 kts 53°
2026-05-04 20:12 51.28597 6.77476 127 ft 12 kts 53°
2026-05-04 20:12 51.28651 6.77590 127 ft 13 kts 53°
2026-05-04 20:13 51.28658 6.77715 127 ft 9 kts 72°
2026-05-04 20:13 51.28697 6.77796 127 ft 10 kts 53°
2026-05-04 20:13 51.28752 6.77861 128 ft 10 kts
2026-05-04 20:13 51.28818 6.77796 127 ft 13 kts 322°
2026-05-04 20:14 51.28893 6.77706 127 ft 13 kts 327°
2026-05-04 20:14 51.28954 6.77754 129 ft 11 kts 51°
2026-05-04 20:14 51.29008 6.77865 128 ft 17 kts 53°
2026-05-04 20:14 51.29085 6.78032 129 ft 20 kts 47°
2026-05-04 20:15 51.29170 6.78201 135 ft 19 kts 53°
2026-05-04 20:15 51.29243 6.78357 142 ft 16 kts 54°
2026-05-04 20:15 51.29295 6.78466 147 ft 8 kts 51°
2026-05-04 20:15 51.29304 6.78485 148 ft 0 kts 52°
2026-05-04 20:16 51.29309 6.78496 148 ft 3 kts 52°
2026-05-04 20:16 51.29325 6.78529 149 ft 3 kts 52°
2026-05-04 20:16 51.29326 6.78530 149 ft 1 kts 52°
2026-05-04 20:16 51.29333 6.78540 150 ft 0 kts 40°
2026-05-04 20:17 51.29335 6.78543 150 ft 0 kts 40°
2026-05-04 20:17 51.29341 6.78549 150 ft 4 kts 36°
2026-05-04 20:17 51.29376 6.78570 152 ft 0 kts
2026-05-04 20:18 51.29377 6.78570 152 ft 0 kts
2026-05-04 20:18 51.29379 6.78570 152 ft 1 kts
2026-05-04 20:19 51.29385 6.78571 152 ft 0 kts
2026-05-04 20:20 51.29416 6.78570 152 ft 8 kts 356°
2026-05-04 20:20 51.29440 6.78567 152 ft 2 kts 356°
2026-05-04 20:21 51.29441 6.78567 152 ft 0 kts 356°
2026-05-04 20:22 51.29445 6.78567 152 ft 3 kts 356°
2026-05-04 20:22 51.29485 6.78560 152 ft 9 kts 347°
2026-05-04 20:22 51.29519 6.78482 150 ft 11 kts 257°
2026-05-04 20:23 51.29499 6.78426 149 ft 0 kts 233°
2026-05-04 20:23 51.29495 6.78419 149 ft 0 kts 233°
2026-05-04 20:24 51.29490 6.78407 148 ft 0 kts 232°
2026-05-04 20:24 51.29465 6.78356 147 ft 23 kts 232°
2026-05-04 20:24 51.29211 6.77827 133 ft 95 kts 232°
2026-05-04 20:25 51.28696 6.76747 131 ft 146 kts 231°
2026-05-04 20:25 51.28094 6.75464 693 ft 140 kts 232°
2026-05-04 20:25 51.27519 6.74203 1239 ft 143 kts 231°
2026-05-04 20:25 51.26941 6.72951 1780 ft 144 kts 231°
2026-05-04 20:26 51.26309 6.71597 2182 ft 157 kts 231°
2026-05-04 20:26 51.25619 6.70125 2558 ft 175 kts 232°
2026-05-04 20:26 51.24853 6.68494 2997 ft 194 kts 232°
2026-05-04 20:26 51.23997 6.66666 3489 ft 214 kts 232°
2026-05-04 20:27 51.23331 6.65274 3828 ft 231 kts 226°
2026-05-04 20:27 51.22012 6.63846 4570 ft 240 kts 200°
2026-05-04 20:27 51.20261 6.63516 4925 ft 261 kts 174°
2026-05-04 20:27 51.18473 6.63890 5933 ft 262 kts 173°
2026-05-04 20:28 51.16661 6.64248 6927 ft 265 kts 172°
2026-05-04 20:28 51.14926 6.65266 7866 ft 270 kts 148°
2026-05-04 20:28 51.13483 6.67230 8820 ft 277 kts 136°
2026-05-04 20:28 51.12320 6.69272 9687 ft 281 kts 133°
2026-05-04 20:29 51.11016 6.71669 10480 ft 291 kts 133°
2026-05-04 20:29 51.09608 6.74177 10836 ft 314 kts 134°
2026-05-04 20:29 51.08086 6.76790 11216 ft 333 kts 135°
2026-05-04 20:29 51.06471 6.79511 12003 ft 338 kts 135°
2026-05-04 20:30 51.04956 6.82044 12771 ft 342 kts 136°
2026-05-04 20:30 51.03306 6.84795 13587 ft 347 kts 136°
2026-05-04 20:30 51.01648 6.87552 14322 ft 351 kts 136°
2026-05-04 20:30 50.99971 6.90339 15049 ft 354 kts 136°
2026-05-04 20:31 50.98279 6.93151 15780 ft 358 kts 136°
2026-05-04 20:31 50.96543 6.96030 16467 ft 361 kts 130°
2026-05-04 20:31 50.96034 6.96885 16596 ft 363 kts 135°
2026-05-04 20:31 50.94278 6.99821 17289 ft 367 kts 136°
2026-05-04 20:32 50.92504 7.02765 17993 ft 371 kts 136°
2026-05-04 20:32 50.90851 7.05497 18573 ft 374 kts 136°
2026-05-04 20:32 50.89041 7.08486 19185 ft 378 kts 136°
2026-05-04 20:32 50.87257 7.11427 19755 ft 382 kts 136°
2026-05-04 20:33 50.85366 7.14540 20357 ft 385 kts 137°
2026-05-04 20:33 50.83501 7.17607 20942 ft 389 kts 137°
2026-05-04 20:33 50.81616 7.20704 21525 ft 393 kts 137°
2026-05-04 20:33 50.79731 7.23796 22074 ft 397 kts 137°
2026-05-04 20:34 50.77803 7.26957 22640 ft 401 kts 137°
2026-05-04 20:34 50.75856 7.30143 22913 ft 404 kts 137°
2026-05-04 20:34 50.73901 7.33340 22976 ft 405 kts 137°
2026-05-04 20:34 50.71950 7.36527 22802 ft 403 kts 137°
2026-05-04 20:35 50.69999 7.39709 22185 ft 405 kts 137°
2026-05-04 20:35 50.68031 7.42911 21288 ft 409 kts 137°
2026-05-04 20:35 50.66152 7.45964 20466 ft 412 kts 137°
2026-05-04 20:35 50.64174 7.49178 19803 ft 409 kts 137°
2026-05-04 20:36 50.62194 7.52392 19178 ft 404 kts 137°
2026-05-04 20:36 50.60247 7.55549 18558 ft 401 kts 137°
2026-05-04 20:36 50.58341 7.58635 17830 ft 395 kts 137°
2026-05-04 20:36 50.56440 7.61711 16841 ft 389 kts 137°
2026-05-04 20:37 50.54581 7.64716 16271 ft 376 kts 137°
2026-05-04 20:37 50.52773 7.67635 15774 ft 370 kts 137°
2026-05-04 20:37 50.50991 7.70506 15233 ft 365 kts 137°
2026-05-04 20:37 50.49225 7.73347 14711 ft 361 kts 137°
2026-05-04 20:38 50.47475 7.76160 14182 ft 358 kts 137°
2026-05-04 20:38 50.45747 7.78934 13644 ft 354 kts 137°
2026-05-04 20:38 50.44030 7.81680 13108 ft 349 kts 139°
2026-05-04 20:38 50.42247 7.84100 12728 ft 339 kts 145°
2026-05-04 20:39 50.40420 7.86471 12420 ft 340 kts 136°
2026-05-04 20:39 50.39144 7.89553 12183 ft 348 kts 116°
2026-05-04 20:39 50.38307 7.93161 11924 ft 352 kts 111°
2026-05-04 20:39 50.37728 7.96866 11677 ft 352 kts 102°
2026-05-04 20:40 50.37435 8.00666 11419 ft 351 kts 98°
2026-05-04 20:40 50.37208 8.04471 11170 ft 351 kts 98°
2026-05-04 20:40 50.36976 8.08269 10916 ft 350 kts 98°
2026-05-04 20:40 50.36724 8.12042 10672 ft 348 kts 99°
2026-05-04 20:41 50.36455 8.15810 10456 ft 346 kts 99°
2026-05-04 20:41 50.36186 8.19456 10356 ft 335 kts 99°
2026-05-04 20:41 50.35920 8.23008 10234 ft 323 kts 100°
2026-05-04 20:41 50.35663 8.26418 10119 ft 310 kts 100°
2026-05-04 20:42 50.35411 8.29721 9831 ft 303 kts 100°
2026-05-04 20:42 50.35162 8.32960 9653 ft 294 kts 100°
2026-05-04 20:42 50.34913 8.36159 9520 ft 298 kts 100°
2026-05-04 20:42 50.34510 8.39318 9387 ft 292 kts 112°
2026-05-04 20:43 50.33685 8.42188 9256 ft 288 kts 122°
2026-05-04 20:43 50.32758 8.44900 9156 ft 284 kts 122°
2026-05-04 20:43 50.31834 8.47570 9072 ft 274 kts 122°
2026-05-04 20:43 50.30948 8.50118 8982 ft 262 kts 122°
2026-05-04 20:44 50.30096 8.52566 8879 ft 250 kts 123°
2026-05-04 20:44 50.29281 8.54902 8762 ft 240 kts 123°
2026-05-04 20:44 50.28490 8.57161 8562 ft 234 kts 123°
2026-05-04 20:44 50.27697 8.59415 8439 ft 239 kts 123°
2026-05-04 20:45 50.26900 8.61683 8307 ft 236 kts 123°
2026-05-04 20:45 50.26118 8.63914 8142 ft 237 kts 122°
2026-05-04 20:45 50.25323 8.66179 7829 ft 237 kts 122°
2026-05-04 20:45 50.24543 8.68401 7544 ft 235 kts 122°
2026-05-04 20:46 50.23748 8.70664 7248 ft 234 kts 122°
2026-05-04 20:46 50.22962 8.72899 6952 ft 234 kts 122°
2026-05-04 20:46 50.22194 8.75085 6671 ft 233 kts 122°
2026-05-04 20:46 50.21414 8.77299 6366 ft 232 kts 121°
2026-05-04 20:47 50.20639 8.79497 6060 ft 231 kts 121°
2026-05-04 20:47 50.19863 8.81696 5765 ft 231 kts 121°
2026-05-04 20:47 50.19093 8.83873 5517 ft 228 kts 121°
2026-05-04 20:47 50.18346 8.86038 5260 ft 226 kts 115°
2026-05-04 20:48 50.18110 8.88376 5053 ft 221 kts 86°
2026-05-04 20:48 50.18499 8.90634 4989 ft 208 kts 72°
2026-05-04 20:48 50.18972 8.92708 4998 ft 202 kts 71°
2026-05-04 20:48 50.19424 8.94687 4982 ft 184 kts 71°
2026-05-04 20:49 50.19568 8.96514 4979 ft 160 kts 108°
2026-05-04 20:49 50.18948 8.97798 5009 ft 155 kts 149°
2026-05-04 20:49 50.17963 8.98648 4996 ft 169 kts 154°
2026-05-04 20:49 50.16837 8.99090 4988 ft 168 kts 186°
2026-05-04 20:50 50.15775 8.98393 4989 ft 173 kts 220°
2026-05-04 20:50 50.14992 8.96804 4988 ft 191 kts 242°
2026-05-04 20:50 50.14467 8.94901 4989 ft 192 kts 249°
2026-05-04 20:50 50.14014 8.92939 4988 ft 192 kts 249°
2026-05-04 20:51 50.13553 8.90990 4988 ft 192 kts 249°
2026-05-04 20:51 50.13095 8.89065 4993 ft 192 kts 249°
2026-05-04 20:51 50.12632 8.87122 4989 ft 191 kts 249°
2026-05-04 20:51 50.12168 8.85174 4899 ft 192 kts 249°
2026-05-04 20:52 50.11703 8.83223 4645 ft 191 kts 249°
2026-05-04 20:52 50.11246 8.81306 4361 ft 186 kts 249°
2026-05-04 20:52 50.10801 8.79438 4100 ft 182 kts 249°
2026-05-04 20:52 50.10368 8.77618 3855 ft 176 kts 249°
2026-05-04 20:53 50.09957 8.75897 3603 ft 166 kts 249°
2026-05-04 20:53 50.09567 8.74259 3371 ft 154 kts 250°
2026-05-04 20:53 50.09203 8.72733 3164 ft 149 kts 250°
2026-05-04 20:53 50.08842 8.71217 2965 ft 145 kts 250°
2026-05-04 20:54 50.08507 8.69813 2766 ft 135 kts 250°
2026-05-04 20:54 50.08178 8.68436 2563 ft 137 kts 250°
2026-05-04 20:54 50.07849 8.67055 2376 ft 136 kts 250°
2026-05-04 20:54 50.07518 8.65665 2174 ft 136 kts 250°
2026-05-04 20:55 50.07188 8.64285 1984 ft 136 kts 251°
2026-05-04 20:55 50.06856 8.62905 1791 ft 136 kts 251°
2026-05-04 20:55 50.06529 8.61531 1605 ft 135 kts 252°
2026-05-04 20:55 50.06208 8.60161 1393 ft 135 kts 250°
2026-05-04 20:56 50.05877 8.58807 1197 ft 132 kts 250°
2026-05-04 20:56 50.05574 8.57479 1010 ft 131 kts 250°
2026-05-04 20:56 50.05248 8.56151 820 ft 130 kts 250°
2026-05-04 20:56 50.04933 8.54829 604 ft 130 kts 249°
2026-05-04 20:57 50.04623 8.53542 418 ft 128 kts 249°
2026-05-04 20:57 50.04325 8.52288 352 ft 112 kts 250°
2026-05-04 20:57 50.04123 8.51450 329 ft 54 kts 249°
2026-05-04 20:57 50.04010 8.51072 330 ft 32 kts 226°
2026-05-04 20:58 50.03896 8.50904 325 ft 9 kts 220°
2026-05-04 20:58 50.03862 8.50869 326 ft 1 kts 208°
2026-05-04 20:58 50.03818 8.50918 337 ft 15 kts 101°
2026-05-04 20:58 50.03829 8.51081 335 ft 29 kts 74°
2026-05-04 20:59 50.03909 8.51453 331 ft 36 kts 70°
2026-05-04 20:59 50.03989 8.51794 333 ft 32 kts 69°
2026-05-04 20:59 50.04094 8.52239 338 ft 48 kts 66°
2026-05-04 20:59 50.04201 8.52679 354 ft 40 kts 69°
2026-05-04 21:00 50.04339 8.53261 360 ft 81 kts 70°
2026-05-04 21:00 50.04447 8.53740 354 ft 35 kts 76°
2026-05-04 21:00 50.04435 8.54080 357 ft 46 kts 94°